• Join FlightAware (Why Join?)
  • Login
  • US Flag GB Flag 
01:22 EDT


 

Airport Tracker/Info


-or-


 

Live Flight TrackerFlight Track Log ✈ ASQ6115 ✈ 21-Jul-2013 ✈ KLGA - KCLE

Flight Track Log - Related Links

Times and Time Zones

All times are in EDT time to prevent confusion due to time zone crossing. See the ASQ6115 flight status page for this flight to view local times or setup timezone preferences in your user account.

Time Position Orientation Groundspeed Altitude Reporting Facility
EDT Latitude Longitude Course Direction KTS MPH feet Rate Location/Type
11:03 40.7333 -73.8333 275° West 209 241 2,100  Level New York TRACON
11:05 40.7733 -73.8647 329° Northwest 235 270 5,300 1,860 Climbing New York Center
11:06 40.8260 -74.3195 277° West  Level FlightAware Approximate
11:06 40.7775 -73.9417 274° West 258 297 7,200  Level New York Center
11:07 40.8360 -74.4364 275° West  Level FlightAware Approximate
11:07 40.7700 -74.0564 265° West 258 297 9,500  Level New York Center
11:08 40.8444 -74.5536 275° West  Level FlightAware Approximate
11:08 40.7761 -74.1361 276° West 276 318 11,300  Level New York Center
11:09 40.8000 -74.2833 282° West 309 356 13,300 1,380 Climbing New York TRACON
11:11 40.8247 -74.4622 280° West 307 353 15,600 1,320 Climbing New York Center
11:12 40.8414 -74.5919 280° West 319 367 16,900 780 Climbing New York Center
11:13 40.8567 -74.6997 281° West 325 374 17,200 720 Climbing New York Center
11:14 40.8769 -74.8408 281° West 348 400 18,400 1,080 Climbing New York Center
11:15 40.8917 -74.9517 280° West 348 400 19,400 1,020 Climbing New York Center
11:16 40.9081 -75.0789 280° West 353 406 20,500 1,140 Climbing New York Center
11:17 40.9117 -75.2028 272° West 353 406 21,700 1,140 Climbing New York Center
11:18 40.8842 -75.3272 254° West 344 396 22,800 960 Climbing New York Center
11:19 40.8567 -75.4461 253° West 349 402 23,700 900 Climbing New York Center
11:20 40.8267 -75.5703 252° West 355 409 24,700 960 Climbing New York Center
11:21 40.7967 -75.6886 252° West 355 409 25,700 900 Climbing New York Center
11:22 40.7686 -75.8128 253° West 355 409 26,600 900 Climbing New York Center
11:23 40.7406 -75.9311 253° West 355 409 27,600 660 Climbing New York Center
11:24 40.7103 -76.0519 252° West 355 409 28,000 180 Climbing New York Center
11:25 40.6792 -76.1839 253° West 360 414 28,000  Level New York Center
11:26 40.6769 -76.3206 269° West 371 427 28,000  Level New York Center
11:27 40.6972 -76.4644 281° West 384 442 28,000  Level New York Center
11:28 40.7194 -76.6089 282° West 396 456 28,000  Level New York Center
11:29 40.7414 -76.7558 281° West 401 461 28,000  Level New York Center
11:30 40.7611 -76.9000 280° West 401 461 28,000  Level New York Center
11:31 40.7844 -77.0503 282° West 406 467 28,000  Level New York Center
11:32 40.8058 -77.1947 281° West 411 473 28,000  Level New York Center
11:34 40.8414 -77.4542 280° West 394 453 28,000  Level Cleveland Center
11:35 40.8600 -77.5961 280° West 389 448 28,000  Level Cleveland Center
11:36 40.8803 -77.7406 281° West 395 455 28,000  Level Cleveland Center
11:37 40.9006 -77.8908 280° West 406 467 28,000  Level Cleveland Center
11:38 40.9228 -78.0356 282° West 406 467 28,000  Level Cleveland Center
11:39 40.9467 -78.1806 282° West 406 467 28,000  Level Cleveland Center
11:40 40.9750 -78.3389 283° West 406 467 28,000  Level Cleveland Center
11:41 40.9986 -78.4867 282° West 411 473 28,000  Level Cleveland Center
11:42 41.0172 -78.6017 282° West 411 473 28,000  Level Cleveland Center
11:43 41.0431 -78.7772 281° West 411 473 28,000  Level Cleveland Center
11:44 41.0661 -78.9225 282° West 411 473 28,000  Level Cleveland Center
11:45 41.0892 -79.0678 282° West 411 473 28,000  Level Cleveland Center
11:46 41.1097 -79.2136 281° West 411 473 28,000  Level Cleveland Center
11:47 41.1322 -79.3592 282° West 411 473 28,000  Level Cleveland Center
11:48 41.1564 -79.5047 282° West 411 473 28,000  Level Cleveland Center
11:49 41.1742 -79.6231 281° West 411 473 28,000  Level Cleveland Center
11:50 41.1983 -79.7856 281° West 411 473 28,000 -180 Level Cleveland Center
11:51 41.2203 -79.9317 281° West 411 473 27,700 -960 Descending Cleveland Center
11:52 41.2461 -80.0917 282° West 405 466 26,100 -1,920 Descending Cleveland Center
11:53 41.2675 -80.2406 281° West 413 475 23,900 -2,160 Descending Cleveland Center
11:54 41.2844 -80.3731 280° West 413 475 21,800 -2,160 Descending Cleveland Center
11:55 41.3075 -80.5139 282° West 400 460 19,600 -2,160 Descending Cleveland Center
11:56 41.3283 -80.6522 281° West 386 444 17,500 -2,160 Descending Cleveland Center
11:57 41.3700 -80.7742 295° West 371 427 15,300 -2,220 Descending Cleveland Center
11:58 41.4156 -80.8961 297° West 365 420 13,100 -2,160 Descending Cleveland Center
11:59 41.4631 -81.0236 296° West 354 407 11,000 -1,680 Descending Cleveland Center
11:59 41.4981 -81.1156 297° West 352 405 10,000 -600 Descending Cleveland Center
12:00 41.5014 -81.2514 272° West 356 410 10,000  Level Cleveland Center
12:02 41.4883 -81.3758 262° West 344 396 10,000  Level Cleveland Center
12:03 41.4706 -81.5031 259° West 343 395 10,000  Level Cleveland Center
12:04 41.4425 -81.6136 251° West 324 373 10,000 -720 Level Cleveland Center
12:05 41.4042 -81.7044 241° Southwest 264 304 8,600 -1,560 Descending Cleveland Center
12:06 41.3594 -81.7919 236° Southwest 274 315 6,700 -1,800 Descending Cleveland Center
12:07 41.3106 -81.8686 230° Southwest 269 310 4,900 -1,500 Descending Cleveland Center
12:08 41.2725 -81.9342 232° Southwest 241 277 3,900 -1,140 Descending Cleveland Center